[[{"header":{"parameterUnit":"m.s-1","parameterCategory":2,"la1":30.2991,"la2":30.254,"lo1":-89.0895,"lo2":-89.0444,"dy":0.0017,"dx":0.0017,"nx":28,"ny":28,"refTime":"2025-09-19T03:00:00:Z","depth":"0","parameterNumber":2,"parameterNumberName":"U-component_of_CURRENTS"},"data":[0,0,0,0,0,0,0,0,0,0,0,0,0,0,0,0,0,0,0,0,0,0,0,0,0,0,0,0,0,0,0,0,0,0,0,0,0,0,0,0,0,0,0,0,0,0,0,0,0,0,0,0,0,0,0,0,0,0,0.2656,0.2657,0,0.2696,0.2696,0.2696,0.2684,0.2683,0.2682,0.2682,0.2661,0.2661,0.2661,0,0,0,0,0,0,0,0,0,0,0,0,0,0.2573,0.2574,0.2656,0.2657,0.2658,0.2696,0.2696,0.2696,0.2684,0.2683,0.2682,0.2682,0.2661,0.2661,0.2661,0,0,0,0,0,0,0,0,0,0,0,0,0,0.2608,0.2575,0.2656,0.2658,0.2659,0.2696,0.2696,0.2696,0.2684,0.2683,0.2682,0.2681,0.2661,0.2661,0.2661,0.2679,0,0,0.2661,0.2661,0,0,0,0,0,0,0,0,0.2606,0.2611,0.2657,0.2658,0.2659,0.2686,0.2659,0.2689,0.2684,0.2671,0.2682,0.2681,0.2666,0.2666,0.2672,0.2678,0.2677,0.2661,0.2661,0.2661,0.2661,0,0,0,0,0,0,0,0.2603,0.2609,0.2669,0.2658,0.2659,0.2658,0.2662,0.2665,0.267,0.2673,0.2672,0.2681,0.2666,0.2672,0.2672,0.2677,0.2661,0.2661,0.2661,0.2661,0.2739,0.2741,0,0,0,0,0,0,0.2605,0.2607,0.2668,0.2671,0.2633,0.2661,0.2664,0.2676,0.2672,0.2671,0.2682,0.2681,0.2673,0.2672,0.2671,0.2728,0.2661,0.2661,0.2661,0.2737,0.274,0.2742,0,0,0,0,0,0,0.2603,0.261,0.2666,0.2641,0.2649,0.2663,0.2676,0.2677,0.2687,0.268,0.2678,0.2691,0.2672,0.2671,0.2689,0.2726,0.2661,0.2661,0.2735,0.2738,0.2741,0.282,0,0,0,0,0,0,0.2601,0.2609,0.2617,0.2642,0.265,0.2701,0.2677,0.2679,0.2695,0.2693,0.2687,0.2684,0.2671,0.2689,0.2689,0.2725,0.2661,0.2732,0.2736,0.274,0.2815,0.2826,0.2835,0,0,0,0,0,0.2598,0.2617,0.2617,0.2625,0.2661,0.2702,0.2707,0.2711,0.2696,0.2713,0.2709,0.2684,0.2714,0.2691,0.269,0.2727,0.273,0.2735,0.274,0.2811,0.2824,0.2835,0,0,0,0,0,0,0.2583,0.2618,0.2619,0.2647,0.2677,0.2701,0.2718,0.2718,0.2729,0.2722,0.2706,0.2704,0.2741,0.2723,0.2698,0.2763,0.272,0.2725,0.2775,0.2787,0.2796,0.2782,0.2661,0,0,0,0,0,0.2585,0.2609,0.2642,0.2665,0.2682,0.2699,0.2714,0.272,0.2735,0.2738,0.2736,0.2739,0.2762,0.2763,0.2777,0.2802,0.2849,0.2828,0.2838,0.2847,0.2837,0.2987,0.301,0.2757,0.2757,0.2757,0,0,0.2584,0.2608,0.2621,0.2664,0.2684,0.2718,0.2706,0.2738,0.2762,0.2734,0.2763,0.2776,0.2779,0.2819,0.2833,0.2804,0.2944,0.2853,0.286,0.2845,0.2994,0.3019,0.3041,0.276,0.276,0.2759,0,0,0.2606,0.2621,0.2651,0.2679,0.2719,0.2735,0.2746,0.2779,0.2789,0.2823,0.282,0.2852,0.287,0.2889,0.2898,0.2968,0.3001,0.2977,0.3005,0.3152,0.3175,0.3195,0.3294,0.3322,0.2972,0.2973,0.2973,0,0.2604,0.264,0.2667,0.2705,0.2725,0.2744,0.2777,0.2802,0.2834,0.286,0.284,0.2916,0.2905,0.2974,0.2987,0.2991,0.307,0.2959,0.3168,0.3189,0.3208,0.3304,0.3335,0.2977,0.2977,0.2976,0.2976,0,0.2652,0.2675,0.2698,0.2748,0.278,0.281,0.2848,0.288,0.2892,0.2924,0.2998,0.3006,0.3056,0.306,0.3031,0.3159,0.3171,0.3176,0.314,0.3239,0.3333,0.3363,0.2983,0.2982,0.298,0.2979,0,0,0.2648,0.2716,0.2718,0.2744,0.2797,0.2831,0.2881,0.2944,0.2998,0.3033,0.3118,0.3137,0.3163,0.3173,0.3173,0.3255,0.3443,0.3262,0.3268,0.3362,0.3764,0.3661,0.3683,0.3511,0.3516,0.352,0.3778,0,0.2669,0.2733,0.2761,0.2816,0.2851,0.2885,0.2938,0.3,0.3056,0.3149,0.3186,0.3269,0.3207,0.3249,0.3329,0.3414,0.3526,0.3371,0.3649,0.3656,0.3556,0.3716,0.3581,0.3791,0.3807,0.3812,0.3816,0,0.2699,0.2736,0.2789,0.2854,0.2874,0.2913,0.3008,0.3061,0.319,0.3242,0.3336,0.3392,0.3494,0.345,0.3662,0.3579,0.3679,0.3737,0.375,0.3639,0.3609,0.3693,0.3845,0.3711,0.3862,0.3859,0.3855,0,0.2691,0.2751,0.279,0.2811,0.2896,0.293,0.2978,0.3092,0.3164,0.3326,0.3412,0.3549,0.3631,0.3782,0.3858,0.3813,0.4102,0.4075,0.4083,0.4076,0.4001,0.3976,0.4051,0.4285,0.4284,0.4284,0.4283,0,0.2709,0.2741,0.2788,0.2818,0.2886,0.2934,0.3037,0.3113,0.3244,0.3342,0.3466,0.3566,0.3728,0.3885,0.3962,0.4099,0.4214,0.4118,0.4156,0.4021,0.3996,0.3901,0.3823,0.4293,0.4291,0.4289,0.4288,0,0.2734,0.2747,0.2807,0.2872,0.2893,0.2955,0.3068,0.3132,0.3261,0.34,0.3461,0.3643,0.3825,0.3973,0.4213,0.422,0.4251,0.44,0.4189,0.4194,0.4012,0.3942,0.3935,0.382,0.4467,0.4466,0.4466,0,0.2766,0.2798,0.2857,0.2866,0.2899,0.2979,0.3018,0.3141,0.3201,0.3416,0.3466,0.3698,0.3822,0.4117,0.4214,0.4395,0.4254,0.4345,0.4211,0.4004,0.396,0.3794,0.3686,0.4167,0.4164,0.4161,0.416,0,0.2832,0.2843,0.2868,0.2892,0.2917,0.2965,0.3021,0.3077,0.3199,0.3316,0.3438,0.357,0.3849,0.3957,0.4181,0.4255,0.4098,0.4294,0.4185,0.381,0.3539,0.3444,0.3958,0.4138,0.414,0.4141,0.4143,0.4143,0.286,0.2878,0.2869,0.2885,0.2899,0.2881,0.2894,0.2947,0.3027,0.3143,0.3321,0.3475,0.3716,0.3997,0.4037,0.3983,0.3961,0.3891,0.3857,0.3732,0.3501,0.3915,0.4052,0.4053,0.4055,0.4056,0.4057,0,0.2845,0.283,0.2847,0.2816,0.2778,0.2814,0.2824,0.2801,0.2822,0.3001,0.312,0.3357,0.35,0.3656,0.3712,0.3588,0.3445,0.3477,0.324,0.3181,0.3678,0.3537,0.3439,0.3439,0.3439,0.3439,0.3439,0.3439,0.2816,0.2777,0.2762,0.2663,0.2642,0.2555,0.253,0.2523,0.2606,0.2703,0.2836,0.3049,0.3273,0.3407,0.3316,0.3246,0.2982,0.2859,0.2829,0.319,0.3225,0.3259,0.3108,0.2922,0.2921,0.2223,0.2217,0.2213]},{"header":{"parameterUnit":"m.s-1","parameterCategory":2,"la1":30.2991,"la2":30.254,"lo1":-89.0895,"lo2":-89.0444,"dy":0.0017,"dx":0.0017,"nx":28,"ny":28,"refTime":"2025-09-19T03:00:00:Z","depth":"0","parameterNumber":3,"parameterNumberName":"V-component_of_CURRENTS"},"data":[0,0,0,0,0,0,0,0,0,0,0,0,0,0,0,0,0,0,0,0,0,0,0,0,0,0,0,0,0,0,0,0,0,0,0,0,0,0,0,0,0,0,0,0,0,0,0,0,0,0,0,0,0,0,0,0,0,0,-0.0073,-0.0074,0,-0.0139,-0.014,-0.0141,-0.0194,-0.0194,-0.0195,-0.0195,-0.0224,-0.0225,-0.0225,0,0,0,0,0,0,0,0,0,0,0,0,0,-0.0021,-0.0022,-0.0073,-0.0074,-0.0074,-0.0139,-0.014,-0.0141,-0.0193,-0.0194,-0.0195,-0.0195,-0.0224,-0.0224,-0.0225,0,0,0,0,0,0,0,0,0,0,0,0,0,-0.0061,-0.0022,-0.0073,-0.0108,-0.0112,-0.0139,-0.014,-0.0141,-0.0193,-0.0194,-0.0195,-0.0196,-0.0224,-0.0224,-0.0225,-0.0213,0,0,-0.0226,-0.0227,0,0,0,0,0,0,0,0,-0.0059,-0.0063,-0.0102,-0.0106,-0.011,-0.0158,-0.0132,-0.0163,-0.0193,-0.0163,-0.0195,-0.0196,-0.0198,-0.0201,-0.0213,-0.0214,-0.0216,-0.0226,-0.0227,-0.0227,-0.0227,0,0,0,0,0,0,0,-0.0056,-0.0061,-0.01,-0.0103,-0.0108,-0.0131,-0.0137,-0.0139,-0.0175,-0.0166,-0.0169,-0.0176,-0.02,-0.0212,-0.0213,-0.0216,-0.0226,-0.0227,-0.0227,-0.0227,-0.0233,-0.0233,0,0,0,0,0,0,-0.0045,-0.0058,-0.0097,-0.0101,-0.0085,-0.0131,-0.0138,-0.0143,-0.0176,-0.0182,-0.0175,-0.0178,-0.0211,-0.0213,-0.0215,-0.0206,-0.0227,-0.0227,-0.0228,-0.0233,-0.0233,-0.0233,0,0,0,0,0,0,-0.0043,-0.0047,-0.0095,-0.0081,-0.0089,-0.0131,-0.0136,-0.0143,-0.0155,-0.0184,-0.0189,-0.0178,-0.0211,-0.0214,-0.0218,-0.0207,-0.0228,-0.0228,-0.0233,-0.0233,-0.0233,-0.0186,0,0,0,0,0,0,-0.0041,-0.0046,-0.0043,-0.008,-0.0089,-0.0099,-0.0135,-0.0144,-0.0157,-0.0162,-0.0188,-0.0192,-0.0212,-0.0217,-0.0219,-0.0208,-0.0228,-0.0234,-0.0233,-0.0233,-0.0188,-0.0184,-0.0181,0,0,0,0,0,-0.0039,-0.0026,-0.0042,-0.0047,-0.0083,-0.0098,-0.0104,-0.0137,-0.0156,-0.0152,-0.0178,-0.0191,-0.0217,-0.0217,-0.0219,-0.0209,-0.0234,-0.0233,-0.0233,-0.0189,-0.0185,-0.0181,0,0,0,0,0,0,0.0006,-0.0032,-0.005,-0.0047,-0.0067,-0.0106,-0.0106,-0.013,-0.0148,-0.0153,-0.0184,-0.0189,-0.0192,-0.0205,-0.0205,-0.0212,-0.0229,-0.0229,-0.0195,-0.0191,-0.0188,-0.014,-0.0229,0,0,0,0,0,0.0017,0.0012,-0.0023,-0.0018,-0.0027,-0.0065,-0.0075,-0.0097,-0.0121,-0.0131,-0.0152,-0.0174,-0.0192,-0.0195,-0.0211,-0.0205,-0.0167,-0.0202,-0.0199,-0.0196,-0.0159,-0.0102,-0.0089,-0.0232,-0.0232,-0.0232,0,0,0.0036,0.0016,0.0013,-0.001,-0.003,-0.0033,-0.0073,-0.0081,-0.0083,-0.0128,-0.0132,-0.016,-0.0189,-0.0193,-0.0195,-0.0201,-0.0136,-0.0195,-0.0193,-0.0157,-0.01,-0.0086,-0.0073,-0.0232,-0.0232,-0.0232,0,0,0.0074,0.0055,0.0061,0.0047,0.0022,-0.0002,-0.0,-0.0035,-0.005,-0.0059,-0.0097,-0.0111,-0.0138,-0.0152,-0.0166,-0.0148,-0.0123,-0.0165,-0.0103,-0.0049,-0.0036,-0.0024,0.005,0.0069,-0.016,-0.016,-0.016,0,0.01,0.01,0.0065,0.0068,0.0064,0.0017,0.0029,0.0008,-0.0023,-0.001,-0.0052,-0.0067,-0.0114,-0.0092,-0.011,-0.0137,-0.0091,-0.0117,-0.0041,-0.0028,-0.0016,0.0056,0.0076,-0.0158,-0.0158,-0.0158,-0.0159,0,0.0137,0.0138,0.0145,0.0129,0.0123,0.0127,0.0094,0.0094,0.0066,0.0055,0.0069,0.0014,0.0024,-0.0021,-0.0071,-0.0015,-0.0004,-0.0044,-0.0042,0.0002,0.0074,0.0095,-0.0155,-0.0155,-0.0156,-0.0157,0,0,0.0191,0.0174,0.0176,0.0196,0.0156,0.0172,0.0166,0.0175,0.0236,0.0172,0.0258,0.0156,0.0156,0.0142,0.009,0.01,0.0184,0.0063,0.0064,0.0154,0.0338,0.0241,0.0254,0.0164,0.0168,0.0171,0.0359,0,0.0232,0.0266,0.0233,0.0279,0.0299,0.0263,0.0292,0.0296,0.0301,0.0378,0.0317,0.0376,0.0212,0.0254,0.0226,0.0211,0.0239,0.0139,0.0269,0.0274,0.0196,0.0274,0.0215,0.0368,0.0379,0.0382,0.0384,0,0.0278,0.0297,0.0346,0.0393,0.0404,0.0432,0.0511,0.0534,0.0595,0.0614,0.0634,0.0622,0.0625,0.0501,0.0491,0.0442,0.0404,0.0368,0.0374,0.0289,0.0213,0.0322,0.0404,0.0196,0.0415,0.0413,0.0411,0,0.0362,0.0384,0.0438,0.0444,0.0483,0.0528,0.0564,0.0622,0.0716,0.0813,0.0924,0.0888,0.0957,0.0864,0.0721,0.065,0.0737,0.064,0.0527,0.0522,0.0501,0.0486,0.0413,0.068,0.068,0.0679,0.0679,0,0.0428,0.0483,0.0498,0.054,0.0675,0.065,0.0825,0.086,0.0986,0.115,0.1087,0.1219,0.1055,0.1052,0.0873,0.0763,0.0862,0.0582,0.0572,0.0511,0.0495,0.0332,0.0216,0.0686,0.0685,0.0683,0.0682,0,0.055,0.0528,0.0632,0.069,0.0728,0.0848,0.1014,0.1149,0.1232,0.1458,0.1517,0.1546,0.1513,0.1329,0.1232,0.1007,0.0767,0.0826,0.0762,0.0737,0.0366,0.0255,0.0247,0.0161,0.0753,0.0752,0.0751,0,0.0626,0.068,0.0788,0.0877,0.0924,0.1081,0.1204,0.1289,0.1432,0.1644,0.1772,0.1829,0.1847,0.165,0.1285,0.102,0.0806,0.0793,0.0602,0.0371,0.0243,0.0177,0.0101,0.062,0.0618,0.0616,0.0615,0,0.0804,0.0837,0.0925,0.109,0.1224,0.1387,0.1548,0.1691,0.1805,0.1974,0.2146,0.2187,0.1988,0.1675,0.1291,0.1055,0.0612,0.0747,0.0548,0.017,0.0065,-0.0031,0.048,0.06,0.0602,0.0603,0.0604,0.0604,0.0965,0.1065,0.1152,0.1316,0.1465,0.1627,0.1763,0.1914,0.212,0.2317,0.2365,0.2425,0.1993,0.1432,0.1117,0.0474,0.0514,0.0252,0.0162,0.0136,-0.0042,0.0424,0.0476,0.0477,0.0477,0.0478,0.0478,0,0.112,0.1195,0.1364,0.1518,0.1674,0.1715,0.1939,0.205,0.2241,0.2422,0.2534,0.2328,0.1778,0.1222,0.0376,-0.0037,-0.0172,-0.0255,-0.0359,-0.0392,0.0072,-0.0041,-0.0149,-0.0149,-0.0149,-0.0149,-0.0149,-0.0148,0.1204,0.1344,0.1393,0.1628,0.1744,0.1922,0.2028,0.2192,0.2332,0.2469,0.2479,0.2479,0.1977,0.0599,-0.0348,-0.0549,-0.0804,-0.0863,-0.0953,-0.0681,-0.0641,-0.0603,-0.0738,-0.0991,-0.0992,-0.1386,-0.1391,-0.1394]}],[{"header":{"parameterUnit":"m.s-1","parameterCategory":2,"la1":30.2991,"la2":30.254,"lo1":-89.0895,"lo2":-89.0444,"dy":0.0017,"dx":0.0017,"nx":28,"ny":28,"refTime":"2025-09-19T03:00:00:Z","depth":"2","parameterNumber":2,"parameterNumberName":"U-component_of_CURRENTS"},"data":[0,0,0,0,0,0,0,0,0,0,0,0,0,0,0,0,0,0,0,0,0,0,0,0,0,0,0,0,0,0,0,0,0,0,0,0,0,0,0,0,0,0,0,0,0,0,0,0,0,0,0,0,0,0,0,0,0,0,0.221,0.2211,0,0.2312,0.2313,0.2314,0.2466,0.2469,0.2471,0.2474,0.2471,0.2468,0.2466,0,0,0,0,0,0,0,0,0,0,0,0,0,0.2149,0.2149,0.221,0.2211,0.2212,0.2312,0.2313,0.2315,0.2465,0.2469,0.2472,0.2475,0.2472,0.2469,0.2465,0,0,0,0,0,0,0,0,0,0,0,0,0,0.2205,0.2149,0.2209,0.23,0.2309,0.2312,0.2313,0.2315,0.2465,0.2469,0.2473,0.2477,0.2473,0.2469,0.2465,0.2359,0,0,0.2453,0.2451,0,0,0,0,0,0,0,0,0.2201,0.2207,0.2285,0.2294,0.2304,0.2381,0.2291,0.2325,0.2464,0.2405,0.2474,0.2479,0.2428,0.2428,0.2439,0.2359,0.2359,0.2453,0.245,0.2449,0.2448,0,0,0,0,0,0,0,0.2197,0.2203,0.225,0.2286,0.2298,0.2337,0.2349,0.2298,0.239,0.2411,0.2422,0.2433,0.2433,0.2443,0.244,0.2359,0.2453,0.2449,0.2447,0.2445,0.2421,0.2422,0,0,0,0,0,0,0.2181,0.2199,0.2246,0.2253,0.2262,0.2335,0.2349,0.2352,0.2393,0.2405,0.2429,0.244,0.2447,0.2444,0.244,0.2498,0.2449,0.2445,0.2443,0.2419,0.2421,0.2423,0,0,0,0,0,0,0.2179,0.2183,0.2242,0.223,0.224,0.2331,0.2334,0.2352,0.2379,0.2409,0.2419,0.2442,0.245,0.2446,0.2456,0.2492,0.2443,0.244,0.2417,0.242,0.2422,0.2497,0,0,0,0,0,0,0.2176,0.2182,0.2197,0.2228,0.224,0.2279,0.233,0.2351,0.2379,0.2394,0.242,0.2425,0.2453,0.2462,0.2452,0.2486,0.2437,0.2415,0.2418,0.2421,0.2492,0.2502,0.251,0,0,0,0,0,0.2173,0.2187,0.2197,0.2204,0.2252,0.228,0.229,0.2368,0.2375,0.2402,0.2435,0.2425,0.2477,0.2459,0.2447,0.2481,0.2413,0.2417,0.2421,0.2488,0.25,0.251,0,0,0,0,0,0,0.2176,0.2203,0.2217,0.2239,0.2268,0.2307,0.2342,0.235,0.239,0.2415,0.2419,0.2426,0.2455,0.2442,0.2422,0.2488,0.2451,0.2452,0.2507,0.2517,0.2525,0.262,0.2433,0,0,0,0,0,0.2172,0.2189,0.2215,0.2233,0.2247,0.2276,0.2297,0.2342,0.2371,0.2395,0.2405,0.2429,0.2451,0.2466,0.2476,0.2475,0.2495,0.25,0.2508,0.2516,0.2587,0.2639,0.2659,0.2435,0.2435,0.2435,0,0,0.2175,0.2193,0.2204,0.2234,0.2261,0.2297,0.2302,0.2345,0.2402,0.2376,0.2445,0.2437,0.2454,0.2503,0.2514,0.2504,0.2578,0.2521,0.2527,0.2596,0.2645,0.2667,0.2687,0.2438,0.2437,0.2437,0,0,0.219,0.2203,0.2228,0.2253,0.2299,0.2322,0.2323,0.2359,0.242,0.2461,0.2474,0.2513,0.2508,0.2573,0.2591,0.2639,0.2611,0.2607,0.2738,0.2785,0.2804,0.2822,0.2828,0.2846,0.2625,0.2625,0.2625,0,0.2204,0.2222,0.224,0.2275,0.2313,0.2324,0.2369,0.2418,0.246,0.2523,0.2513,0.2589,0.2577,0.2678,0.272,0.2666,0.2664,0.2691,0.2799,0.2817,0.2834,0.2836,0.2855,0.2629,0.2629,0.2628,0.2628,0,0.2231,0.226,0.2275,0.2325,0.2374,0.2404,0.2475,0.2536,0.2578,0.2632,0.2739,0.2751,0.2815,0.2798,0.278,0.2889,0.2834,0.2788,0.2775,0.2862,0.2856,0.2875,0.2635,0.2634,0.2633,0.2632,0,0,0.2218,0.2283,0.2281,0.2341,0.2404,0.2454,0.2564,0.2675,0.2768,0.2837,0.2965,0.3021,0.3023,0.3049,0.3012,0.3071,0.315,0.2991,0.2991,0.3005,0.3223,0.3117,0.3125,0.3105,0.311,0.3114,0.3153,0,0.2232,0.2295,0.233,0.2425,0.2485,0.2564,0.2672,0.2795,0.2879,0.2999,0.3087,0.3163,0.3115,0.3134,0.3195,0.3148,0.321,0.3143,0.3135,0.3136,0.3038,0.3149,0.2889,0.2898,0.317,0.3173,0.3176,0,0.2246,0.2298,0.2378,0.2529,0.2564,0.2631,0.2828,0.2933,0.3112,0.3184,0.3303,0.3323,0.3431,0.3362,0.3427,0.3372,0.3338,0.3315,0.3313,0.3225,0.3068,0.2866,0.2921,0.3206,0.3204,0.3201,0.3199,0,0.2249,0.2342,0.2412,0.2452,0.2612,0.2711,0.2815,0.2998,0.3115,0.3296,0.3366,0.3489,0.3541,0.356,0.3496,0.3464,0.3544,0.3476,0.337,0.3358,0.3153,0.3116,0.3577,0.3577,0.3577,0.3577,0.3577,0,0.2258,0.2338,0.2422,0.2472,0.2613,0.2748,0.2922,0.3042,0.3223,0.3342,0.3447,0.3521,0.3596,0.3621,0.3566,0.3518,0.3593,0.3453,0.3395,0.3162,0.3128,0.3413,0.3394,0.3578,0.3578,0.3578,0.3578,0,0.2295,0.232,0.2455,0.2593,0.2619,0.2766,0.2955,0.3074,0.3236,0.3388,0.3444,0.3579,0.3606,0.3632,0.3649,0.3586,0.3552,0.3512,0.3218,0.3129,0.3321,0.3305,0.3442,0.344,0.3437,0.3435,0.3434,0,0.231,0.2366,0.2505,0.256,0.2625,0.2798,0.288,0.3066,0.3168,0.338,0.3429,0.354,0.3528,0.3531,0.3477,0.3412,0.3494,0.3159,0.3095,0.3395,0.3324,0.3311,0.3298,0.2819,0.2813,0.2808,0.2803,0,0.2376,0.2435,0.2528,0.2597,0.2681,0.2782,0.2907,0.2948,0.3151,0.3238,0.3293,0.3299,0.3346,0.3177,0.3156,0.3081,0.3153,0.3051,0.3463,0.2896,0.2812,0.274,0.2748,0.2756,0.2761,0.2764,0.2767,0.2769,0.2454,0.2498,0.256,0.2623,0.2711,0.2702,0.2715,0.2793,0.2856,0.2881,0.3015,0.2935,0.2972,0.2787,0.2688,0.267,0.288,0.2769,0.2783,0.2804,0.2728,0.2646,0.2542,0.2545,0.2548,0.255,0.2553,0,0.248,0.2486,0.2539,0.2585,0.2594,0.2661,0.2671,0.2594,0.253,0.2594,0.258,0.2338,0.2233,0.2298,0.2189,0.2193,0.2155,0.2126,0.2063,0.2112,0.2155,0.2045,0.1677,0.1675,0.1672,0.1669,0,0,0.2512,0.2497,0.2433,0.2378,0.242,0.2375,0.2326,0.2208,0.2201,0.2004,0.1979,0.2068,0.2201,0.1891,0.1871,0.1765,0.1918,0.1695,0.24,0.2374,0.2413,0.2534,0.242,0,0,0,0,0]},{"header":{"parameterUnit":"m.s-1","parameterCategory":2,"la1":30.2991,"la2":30.254,"lo1":-89.0895,"lo2":-89.0444,"dy":0.0017,"dx":0.0017,"nx":28,"ny":28,"refTime":"2025-09-19T03:00:00:Z","depth":"2","parameterNumber":3,"parameterNumberName":"V-component_of_CURRENTS"},"data":[0,0,0,0,0,0,0,0,0,0,0,0,0,0,0,0,0,0,0,0,0,0,0,0,0,0,0,0,0,0,0,0,0,0,0,0,0,0,0,0,0,0,0,0,0,0,0,0,0,0,0,0,0,0,0,0,0,0,-0.0073,-0.0074,0,-0.016,-0.0161,-0.0163,-0.0264,-0.0265,-0.0267,-0.0268,-0.0309,-0.0309,-0.0309,0,0,0,0,0,0,0,0,0,0,0,0,0,-0.0048,-0.0048,-0.0073,-0.0074,-0.0075,-0.016,-0.0161,-0.0163,-0.0264,-0.0265,-0.0267,-0.0268,-0.0309,-0.0309,-0.0309,0,0,0,0,0,0,0,0,0,0,0,0,0,-0.0092,-0.0048,-0.0073,-0.0133,-0.0139,-0.016,-0.0161,-0.0163,-0.0263,-0.0265,-0.0267,-0.0269,-0.0309,-0.0309,-0.0308,-0.0269,0,0,-0.0308,-0.0308,0,0,0,0,0,0,0,0,-0.0089,-0.0093,-0.0124,-0.0129,-0.0136,-0.0201,-0.0168,-0.0195,-0.0263,-0.0219,-0.0268,-0.027,-0.0265,-0.0269,-0.0285,-0.0271,-0.0273,-0.0308,-0.0308,-0.0308,-0.0308,0,0,0,0,0,0,0,-0.0086,-0.009,-0.0111,-0.0124,-0.0132,-0.0174,-0.0182,-0.0174,-0.0232,-0.0223,-0.023,-0.0235,-0.0269,-0.0285,-0.0287,-0.0273,-0.0308,-0.0308,-0.0308,-0.0308,-0.0301,-0.0301,0,0,0,0,0,0,-0.0064,-0.0087,-0.0108,-0.0113,-0.0114,-0.0173,-0.0182,-0.018,-0.0233,-0.0243,-0.0233,-0.0239,-0.0285,-0.0287,-0.0289,-0.0285,-0.0308,-0.0308,-0.0308,-0.0301,-0.0301,-0.0301,0,0,0,0,0,0,-0.0063,-0.0065,-0.0104,-0.01,-0.0108,-0.017,-0.0168,-0.0181,-0.0203,-0.024,-0.025,-0.0242,-0.0286,-0.0289,-0.0293,-0.0286,-0.0308,-0.0308,-0.0301,-0.0301,-0.0301,-0.0251,0,0,0,0,0,0,-0.0062,-0.0064,-0.0063,-0.0098,-0.0107,-0.0117,-0.0166,-0.0181,-0.0201,-0.021,-0.025,-0.0256,-0.0288,-0.0293,-0.0293,-0.0286,-0.0307,-0.0301,-0.0301,-0.0301,-0.0253,-0.0249,-0.0246,0,0,0,0,0,-0.0061,-0.005,-0.0062,-0.0065,-0.0101,-0.0116,-0.0125,-0.0179,-0.0199,-0.0205,-0.0237,-0.0255,-0.0293,-0.0292,-0.0292,-0.0285,-0.0301,-0.0301,-0.0301,-0.0254,-0.025,-0.0246,0,0,0,0,0,0,-0.0041,-0.006,-0.0074,-0.007,-0.009,-0.0133,-0.0143,-0.0166,-0.0196,-0.0207,-0.0242,-0.025,-0.0255,-0.0271,-0.027,-0.0286,-0.0304,-0.0303,-0.0268,-0.0264,-0.0261,-0.0258,-0.0307,0,0,0,0,0,-0.003,-0.0028,-0.0051,-0.0048,-0.0054,-0.0092,-0.0106,-0.0136,-0.0163,-0.0181,-0.0206,-0.0234,-0.0251,-0.0259,-0.0277,-0.0268,-0.029,-0.0269,-0.0266,-0.0263,-0.0261,-0.0262,-0.0259,-0.03,-0.03,-0.03,0,0,-0.002,-0.003,-0.003,-0.0043,-0.0064,-0.0065,-0.0107,-0.0121,-0.0135,-0.0173,-0.0196,-0.0215,-0.0246,-0.0256,-0.0259,-0.0269,-0.0269,-0.0262,-0.0259,-0.026,-0.0262,-0.0258,-0.0254,-0.03,-0.03,-0.03,0,0,0.0007,-0.0005,0.0006,-0.0004,-0.0025,-0.0047,-0.0043,-0.0077,-0.0111,-0.0126,-0.0161,-0.0179,-0.02,-0.0229,-0.0244,-0.0226,-0.0248,-0.0226,-0.0205,-0.0206,-0.0202,-0.0199,-0.0247,-0.0248,-0.0227,-0.0227,-0.0227,0,0.0018,0.0033,0.0006,0.0015,0.0007,-0.0029,-0.0021,-0.0052,-0.0087,-0.0097,-0.0132,-0.0154,-0.0196,-0.0189,-0.0212,-0.0218,-0.023,-0.0215,-0.02,-0.0197,-0.0195,-0.0244,-0.0246,-0.0224,-0.0224,-0.0225,-0.0225,0,0.0051,0.0062,0.0071,0.0069,0.0054,0.0059,0.002,0.0006,-0.0031,-0.0057,-0.0066,-0.0114,-0.0122,-0.0147,-0.0187,-0.0178,-0.0198,-0.0191,-0.0205,-0.0187,-0.0241,-0.0244,-0.0221,-0.0222,-0.0222,-0.0223,0,0,0.0083,0.0093,0.0097,0.0108,0.0083,0.0081,0.0062,0.0045,0.0063,0.0006,0.0028,-0.0046,-0.0051,-0.0069,-0.0097,-0.0125,-0.0158,-0.0156,-0.0157,-0.0197,-0.0182,-0.02,-0.0206,-0.013,-0.0129,-0.0129,-0.0236,0,0.012,0.016,0.014,0.0168,0.0184,0.0143,0.0147,0.0121,0.0092,0.0108,0.005,0.0068,-0.0023,-0.0002,-0.005,-0.0113,-0.0158,-0.0131,-0.02,-0.0204,-0.0215,-0.0207,-0.0173,-0.0264,-0.024,-0.024,-0.0241,0,0.0155,0.0181,0.0218,0.0238,0.0242,0.0253,0.0259,0.0258,0.0255,0.0243,0.0238,0.0211,0.0162,0.01,-0.0024,0.0007,-0.0093,-0.0163,-0.0167,-0.02,-0.0226,-0.0274,-0.0271,-0.0246,-0.0246,-0.0245,-0.0245,0,0.0194,0.023,0.0266,0.027,0.0289,0.0297,0.0311,0.031,0.033,0.0359,0.0384,0.0337,0.0328,0.0211,0.0013,0.0018,-0.0131,-0.0131,-0.0249,-0.0254,-0.0249,-0.0253,-0.0215,-0.0215,-0.0215,-0.0215,-0.0214,0,0.0236,0.0268,0.03,0.0321,0.0381,0.0369,0.0437,0.0442,0.0488,0.0524,0.0482,0.0488,0.0358,0.0242,0.0066,-0.0119,-0.0093,-0.0251,-0.027,-0.0236,-0.0236,-0.0232,-0.0233,-0.0219,-0.0218,-0.0217,-0.0216,0,0.0265,0.0291,0.0341,0.0383,0.04,0.0449,0.0518,0.0567,0.0608,0.0657,0.0676,0.0614,0.0482,0.0305,0.011,-0.0042,-0.0217,-0.0294,-0.0273,-0.0288,-0.0355,-0.0352,-0.0401,-0.0402,-0.0403,-0.0404,-0.0405,0,0.0277,0.031,0.038,0.0418,0.0439,0.0517,0.0564,0.0627,0.0665,0.0698,0.0706,0.064,0.0574,0.0287,0.0043,-0.021,-0.0251,-0.0357,-0.0338,-0.0354,-0.0368,-0.0364,-0.0359,-0.0337,-0.0337,-0.0337,-0.0337,0,0.029,0.0322,0.0359,0.0436,0.0494,0.0572,0.0634,0.0697,0.075,0.0815,0.0819,0.0794,0.0552,0.0337,0.0019,-0.0167,-0.0301,-0.0365,-0.0368,-0.0285,-0.0298,-0.0311,-0.0308,-0.0338,-0.0338,-0.0338,-0.0338,-0.0338,0.0292,0.0308,0.0347,0.0427,0.0505,0.0578,0.0662,0.0738,0.084,0.0928,0.0872,0.0871,0.0625,0.0267,-0.0027,-0.0307,-0.0304,-0.0402,-0.04,-0.0398,-0.036,-0.0373,-0.0424,-0.0425,-0.0425,-0.0425,-0.0425,0,0.0243,0.0258,0.0322,0.0411,0.051,0.0549,0.0663,0.0768,0.0907,0.0981,0.1033,0.0821,0.0594,0.0318,-0.0084,-0.0342,-0.0356,-0.0422,-0.0375,-0.0373,-0.0371,-0.0331,-0.0388,-0.0389,-0.0389,-0.0389,0,0,0.0206,0.0227,0.0255,0.0381,0.0465,0.0575,0.0659,0.0836,0.0944,0.1058,0.109,0.1045,0.0705,0.0426,0.0077,-0.0142,-0.0199,-0.0194,-0.02,-0.0102,-0.0097,-0.0342,-0.0276,0,0,0,0,0]}],[{"header":{"parameterUnit":"m.s-1","parameterCategory":2,"la1":30.2991,"la2":30.254,"lo1":-89.0895,"lo2":-89.0444,"dy":0.0017,"dx":0.0017,"nx":28,"ny":28,"refTime":"2025-09-19T03:00:00:Z","depth":"4","parameterNumber":2,"parameterNumberName":"U-component_of_CURRENTS"},"data":[0,0,0,0,0,0,0,0,0,0,0,0,0,0,0,0,0,0,0,0,0,0,0,0,0,0,0,0,0,0,0,0,0,0,0,0,0,0,0,0,0,0,0,0,0,0,0,0,0,0,0,0,0,0,0,0,0,0,0.1096,0.1096,0,0.1122,0.1122,0.1122,0.1144,0.1144,0.1145,0.1145,0.1227,0.1229,0.1231,0,0,0,0,0,0,0,0,0,0,0,0,0,0.1054,0.1054,0.1096,0.1096,0.1097,0.1122,0.1122,0.1122,0.1144,0.1144,0.1145,0.1145,0.1226,0.1229,0.1231,0,0,0,0,0,0,0,0,0,0,0,0,0,0.1074,0.1054,0.1096,0.1111,0.1113,0.1122,0.1122,0.1122,0.1144,0.1144,0.1145,0.1145,0.1226,0.1229,0.1231,0.1241,0,0,0.124,0.1242,0,0,0,0,0,0,0,0,0.1073,0.1076,0.1108,0.111,0.1112,0.113,0.1137,0.1165,0.1144,0.1132,0.1145,0.1145,0.12,0.1205,0.1208,0.1245,0.1248,0.1241,0.1242,0.1244,0.1244,0,0,0,0,0,0,0,0.1072,0.1075,0.1106,0.1109,0.1111,0.1112,0.1116,0.1142,0.1164,0.1133,0.1134,0.1138,0.1201,0.1205,0.121,0.125,0.124,0.1243,0.1245,0.1246,0.1358,0.136,0,0,0,0,0,0,0.107,0.1074,0.1105,0.1107,0.1094,0.1113,0.1116,0.1124,0.1162,0.1168,0.1137,0.1139,0.1199,0.1206,0.1213,0.1298,0.1243,0.1246,0.1248,0.1357,0.1359,0.136,0,0,0,0,0,0,0.1069,0.1072,0.1104,0.1091,0.1095,0.1113,0.1121,0.1124,0.1159,0.1165,0.1173,0.1173,0.12,0.1209,0.1259,0.1299,0.1248,0.125,0.1356,0.1358,0.1359,0.1422,0,0,0,0,0,0,0.1068,0.1072,0.1092,0.1091,0.1096,0.1129,0.1121,0.1124,0.1159,0.1162,0.1198,0.1204,0.1201,0.1254,0.1262,0.1302,0.1252,0.1354,0.1357,0.1359,0.1419,0.1426,0.1433,0,0,0,0,0,0.1066,0.1085,0.1093,0.1098,0.1118,0.1131,0.1134,0.1147,0.1161,0.118,0.1204,0.1204,0.1274,0.1258,0.1266,0.1308,0.1353,0.1356,0.1359,0.1416,0.1425,0.1432,0,0,0,0,0,0,0.1081,0.1089,0.1098,0.1121,0.1136,0.1135,0.1158,0.1169,0.1202,0.1216,0.1224,0.1231,0.1291,0.1288,0.127,0.1345,0.1313,0.1318,0.1354,0.1362,0.1369,0.1356,0.1255,0,0,0,0,0,0.1092,0.1106,0.1117,0.1137,0.1151,0.1164,0.1178,0.1187,0.1207,0.1224,0.1246,0.1273,0.1303,0.1325,0.1347,0.1391,0.1401,0.1421,0.1428,0.1434,0.1429,0.1493,0.1506,0.1369,0.1369,0.1369,0,0,0.1097,0.1109,0.1115,0.1141,0.1156,0.1171,0.1175,0.1205,0.1216,0.1228,0.1271,0.1305,0.1321,0.1367,0.1394,0.1375,0.1478,0.1438,0.1443,0.1434,0.1498,0.1511,0.1523,0.1371,0.1371,0.137,0,0,0.1104,0.1136,0.1147,0.1166,0.1197,0.1201,0.1219,0.1243,0.126,0.1306,0.1315,0.1372,0.1417,0.1432,0.1445,0.1505,0.1516,0.152,0.1546,0.161,0.1622,0.1632,0.1661,0.1674,0.152,0.152,0.152,0,0.1117,0.1133,0.1154,0.1174,0.1194,0.1219,0.1239,0.1253,0.1288,0.1316,0.133,0.1435,0.1444,0.1507,0.1513,0.1523,0.1549,0.1515,0.162,0.1631,0.1641,0.1667,0.1681,0.1523,0.1523,0.1523,0.1522,0,0.1118,0.115,0.1165,0.1193,0.1218,0.1245,0.1264,0.1303,0.1342,0.1361,0.1456,0.1494,0.1558,0.1573,0.1555,0.1633,0.1626,0.1627,0.1601,0.1658,0.1683,0.1695,0.1528,0.1527,0.1526,0.1525,0,0,0.1108,0.1155,0.1168,0.1189,0.1238,0.1253,0.1293,0.1335,0.139,0.1444,0.1524,0.1574,0.1624,0.164,0.1659,0.1699,0.1777,0.1686,0.1688,0.1716,0.1907,0.1771,0.1772,0.181,0.1812,0.1814,0.1895,0,0.1112,0.1147,0.1172,0.1213,0.1238,0.1286,0.132,0.1366,0.1434,0.1514,0.1575,0.1662,0.1639,0.1708,0.1741,0.1781,0.1814,0.1753,0.1844,0.1845,0.172,0.1783,0.1823,0.1905,0.1908,0.191,0.1911,0,0.111,0.1137,0.1175,0.1238,0.1257,0.1286,0.1386,0.1426,0.1529,0.1601,0.1707,0.1753,0.183,0.1811,0.1909,0.1879,0.1884,0.1903,0.1908,0.1764,0.1733,0.1835,0.1934,0.1932,0.193,0.1929,0.1927,0,0.1081,0.1145,0.1175,0.1196,0.1264,0.1307,0.1358,0.1462,0.1517,0.1678,0.1767,0.1864,0.1945,0.1987,0.1996,0.1976,0.209,0.2073,0.1955,0.1946,0.2015,0.2003,0.213,0.213,0.213,0.2129,0.2129,0,0.1066,0.1098,0.1173,0.1186,0.126,0.1311,0.1415,0.15,0.1617,0.1692,0.1818,0.1891,0.1995,0.2051,0.2046,0.2035,0.2138,0.1963,0.1964,0.2038,0.2028,0.2024,0.201,0.2132,0.2132,0.2131,0.2131,0,0.1015,0.1069,0.1108,0.1193,0.1246,0.1298,0.1434,0.1491,0.1643,0.1756,0.1809,0.1933,0.2021,0.2092,0.2165,0.2093,0.2104,0.2065,0.2134,0.2137,0.1902,0.1891,0.1956,0.1952,0.1948,0.1946,0.1943,0,0.0987,0.1005,0.1106,0.1154,0.12,0.1305,0.137,0.1507,0.1562,0.1744,0.1766,0.1902,0.1973,0.199,0.2056,0.2086,0.2046,0.2038,0.1958,0.1893,0.1889,0.1883,0.1877,0.1938,0.1937,0.1936,0.1935,0,0.0924,0.0963,0.0984,0.1084,0.1163,0.1244,0.1341,0.1376,0.1516,0.1667,0.1709,0.1753,0.1845,0.1892,0.1944,0.194,0.2045,0.2002,0.2008,0.1933,0.1872,0.187,0.1868,0.1924,0.1925,0.1926,0.1927,0,0.0871,0.0872,0.0906,0.0996,0.1087,0.1128,0.121,0.1264,0.1339,0.1533,0.1524,0.1681,0.1803,0.1812,0.1838,0.186,0.1822,0.1751,0.1769,0.1783,0.1687,0.1582,0.1551,0,0,0,0,0,0.0804,0.0789,0.0831,0.0895,0.0969,0.1032,0.1151,0.1221,0.1374,0.1367,0.1444,0.1518,0.1582,0.1638,0.1627,0.1748,0.1821,0.1723,0.1745,0.1859,0.1872,0.1774,0,0,0,0,0,0,0.0748,0.0757,0.0772,0.0783,0.0821,0.0884,0.0958,0.1063,0.1072,0.1241,0.1288,0.1417,0.1506,0.1583,0.1596,0.1618,0.1597,0.1818,0.1814,0.1851,0.1863,0.1874,0.1778,0,0,0,0,0]},{"header":{"parameterUnit":"m.s-1","parameterCategory":2,"la1":30.2991,"la2":30.254,"lo1":-89.0895,"lo2":-89.0444,"dy":0.0017,"dx":0.0017,"nx":28,"ny":28,"refTime":"2025-09-19T03:00:00:Z","depth":"4","parameterNumber":3,"parameterNumberName":"V-component_of_CURRENTS"},"data":[0,0,0,0,0,0,0,0,0,0,0,0,0,0,0,0,0,0,0,0,0,0,0,0,0,0,0,0,0,0,0,0,0,0,0,0,0,0,0,0,0,0,0,0,0,0,0,0,0,0,0,0,0,0,0,0,0,0,0.0083,0.0083,0,0.0054,0.0054,0.0053,0.0047,0.0047,0.0048,0.0048,0.0003,0.0001,-0.0,0,0,0,0,0,0,0,0,0,0,0,0,0,0.0087,0.0088,0.0083,0.0083,0.0083,0.0054,0.0054,0.0053,0.0047,0.0047,0.0048,0.0048,0.0003,0.0001,-0.0,0,0,0,0,0,0,0,0,0,0,0,0,0,0.0074,0.0088,0.0083,0.0076,0.0076,0.0054,0.0054,0.0053,0.0047,0.0047,0.0048,0.0048,0.0004,0.0002,-0.0001,-0.0021,0,0,-0.0007,-0.0008,0,0,0,0,0,0,0,0,0.0075,0.0074,0.0078,0.0077,0.0076,0.0055,0.0038,0.0027,0.0047,0.0057,0.0048,0.0048,0.0019,0.0015,0.0009,-0.0024,-0.0026,-0.0007,-0.0009,-0.001,-0.001,0,0,0,0,0,0,0,0.0076,0.0075,0.0071,0.0077,0.0076,0.0059,0.0058,0.0036,0.0036,0.0057,0.0056,0.0053,0.0018,0.0011,0.0007,-0.0026,-0.0007,-0.0009,-0.0011,-0.0011,-0.0054,-0.0054,0,0,0,0,0,0,0.0082,0.0076,0.0072,0.007,0.0077,0.0059,0.0057,0.0061,0.0036,0.0033,0.0053,0.0053,0.0014,0.001,0.0006,0.0009,-0.001,-0.0012,-0.0013,-0.0054,-0.0054,-0.0054,0,0,0,0,0,0,0.0083,0.0083,0.0073,0.0072,0.007,0.0058,0.0062,0.006,0.0052,0.0034,0.003,0.0047,0.0014,0.0009,-0.0002,0.0006,-0.0013,-0.0015,-0.0054,-0.0054,-0.0054,-0.0004,0,0,0,0,0,0,0.0083,0.0083,0.0086,0.0073,0.007,0.0068,0.0062,0.0059,0.0049,0.0049,0.0027,0.0023,0.0014,0.0002,-0.0004,0.0003,-0.0016,-0.0055,-0.0054,-0.0054,-0.0006,-0.0002,0.0001,0,0,0,0,0,0.0083,0.009,0.0086,0.0085,0.0076,0.0068,0.0066,0.0058,0.0049,0.005,0.0039,0.0024,-0.0,0.0,-0.0006,-0.0,-0.0055,-0.0054,-0.0054,-0.0008,-0.0003,0.0001,0,0,0,0,0,0,0.009,0.0089,0.0085,0.009,0.0082,0.0068,0.0067,0.0055,0.0045,0.0045,0.0025,0.0021,0.0014,-0.0003,-0.0002,-0.0013,-0.003,-0.0031,0.0007,0.0011,0.0015,0.002,-0.0018,0,0,0,0,0,0.0093,0.01,0.0091,0.0094,0.0092,0.0076,0.007,0.0064,0.0054,0.005,0.0034,0.0019,0.0009,0.0003,-0.0012,-0.002,-0.0064,-0.0021,-0.0017,-0.0014,-0.0014,-0.0081,-0.0084,-0.0053,-0.0053,-0.0053,0,0,0.0095,0.0096,0.0099,0.0096,0.0089,0.0096,0.0074,0.0069,0.0079,0.0045,0.0051,0.0027,0.0008,0.0007,0.0001,-0.0005,-0.0046,-0.0014,-0.001,-0.0013,-0.0081,-0.0085,-0.0087,-0.0053,-0.0053,-0.0053,0,0,0.011,0.0105,0.0119,0.0118,0.0112,0.0105,0.0104,0.009,0.009,0.0088,0.0069,0.0049,0.0034,0.0023,0.0015,0.0024,-0.0028,0.0019,0.0045,-0.002,-0.0023,-0.0027,-0.0085,-0.0095,0.0024,0.0024,0.0025,0,0.0113,0.0132,0.012,0.0134,0.0138,0.0113,0.0128,0.0125,0.0111,0.0106,0.01,0.0056,0.0043,0.0031,0.0046,0.0032,-0.0015,0.0034,-0.0016,-0.0021,-0.0025,-0.0084,-0.0095,0.0027,0.0027,0.0026,0.0026,0,0.014,0.0156,0.0163,0.0179,0.0179,0.0186,0.0183,0.0181,0.017,0.0156,0.0134,0.0106,0.0076,0.0073,0.007,0.0036,0.001,-0.0007,-0.0026,-0.0025,-0.0088,-0.01,0.003,0.0029,0.0029,0.0028,0,0,0.0147,0.0179,0.0182,0.0199,0.0204,0.0207,0.0225,0.0225,0.0219,0.02,0.0179,0.0169,0.0127,0.0115,0.0088,0.0047,-0.0014,0.0016,0.0012,-0.004,-0.0162,-0.0112,-0.0122,-0.0045,-0.0047,-0.0049,-0.0192,0,0.0173,0.0214,0.0222,0.0257,0.0275,0.0267,0.0281,0.0275,0.0257,0.0229,0.0188,0.0157,0.0151,0.0124,0.0083,0.0005,-0.0044,0.0026,-0.0156,-0.0161,-0.0117,-0.0133,-0.0054,-0.0201,-0.0204,-0.0206,-0.0208,0,0.0198,0.0224,0.0266,0.0296,0.0302,0.0317,0.0317,0.0327,0.0289,0.0268,0.0222,0.0172,0.0116,0.01,-0.0033,0.0008,-0.0068,-0.0129,-0.0136,-0.0116,-0.0134,-0.0205,-0.0231,-0.0229,-0.0227,-0.0226,-0.0224,0,0.0205,0.0253,0.0288,0.03,0.0328,0.0343,0.0352,0.0333,0.0332,0.0278,0.0249,0.0166,0.0114,0.0009,-0.0085,-0.0079,-0.0242,-0.0259,-0.0291,-0.0289,-0.0314,-0.0309,-0.0366,-0.0366,-0.0366,-0.0366,-0.0365,0,0.0224,0.0251,0.0296,0.0314,0.0343,0.0358,0.0369,0.0363,0.0338,0.0331,0.0262,0.0227,0.0088,-0.0011,-0.0105,-0.0222,-0.0265,-0.0292,-0.0323,-0.0289,-0.0279,-0.0323,-0.0316,-0.0371,-0.037,-0.0369,-0.0368,0,0.0214,0.025,0.0286,0.033,0.0347,0.0362,0.039,0.0393,0.0371,0.0353,0.0334,0.0245,0.0132,-0.0,-0.0178,-0.024,-0.0364,-0.0396,-0.0343,-0.0368,-0.0372,-0.036,-0.0472,-0.0472,-0.0471,-0.0471,-0.047,0,0.0207,0.023,0.0288,0.0313,0.0334,0.0367,0.0391,0.0402,0.0413,0.0378,0.0371,0.026,0.0195,-0.0016,-0.0155,-0.035,-0.0361,-0.0441,-0.0406,-0.0363,-0.0383,-0.0373,-0.0362,-0.047,-0.047,-0.0469,-0.0469,0,0.0191,0.0213,0.0249,0.0308,0.0348,0.0388,0.0432,0.0444,0.0463,0.0432,0.0406,0.03,0.0174,0.0013,-0.0133,-0.0267,-0.04,-0.0437,-0.044,-0.0407,-0.0362,-0.038,-0.037,-0.0468,-0.0468,-0.0468,-0.0468,0,0.0175,0.0195,0.0259,0.0311,0.0361,0.0422,0.0435,0.0474,0.0489,0.0468,0.0458,0.033,0.0244,0.0055,-0.0076,-0.0203,-0.024,-0.0285,-0.0296,-0.03,-0.0189,-0.0102,-0.016,0,0,0,0,0,0.0176,0.0225,0.0263,0.0338,0.0386,0.0427,0.0479,0.0492,0.051,0.0507,0.0492,0.0391,0.0204,0.0111,-0.0006,-0.0085,-0.0276,-0.0229,-0.0337,-0.0459,-0.0461,-0.0353,0,0,0,0,0,0,0.0184,0.0236,0.0272,0.0364,0.0411,0.0479,0.0517,0.0523,0.0528,0.0516,0.0422,0.0364,0.0179,0.0277,-0.0006,-0.0049,-0.0132,-0.0324,-0.0327,-0.0458,-0.0459,-0.0461,-0.035,0,0,0,0,0]}]]